Tracking 20083 objects as of 12-Dec-2019
HD Live streaming from Space Station
objects crossing your sky now

TANSEI 3 DEB

Track TANSEI 3 DEB now!
10-day predictions


NORAD ID: 9982
Int'l Code: 1977-012F
Perigee: 784.3 km
Apogee: 3,761.0 km
Inclination: 65.9 °
Period: 133.3 minutes
Semi major axis: 8643 km
RCS: 0.0721 m2 (small)
Launch date: February 19, 1977
Source: Japan (JPN)
Launch site: KAGOSHIMA SPACE CENTER UNIVERSITY OF TOKYO (KSCUT)

Note: This is SATELLITE DEBRIS
aabbcc
Your satellite tracking list
Your tracking list is empty




NASA's NSSDC Master Catalog

Two Line Element Set (TLE):
1  9982U 77012F   19345.49887518 +.00000052 +00000-0 +23025-3 0  9999
2  9982 065.9079 013.8125 1721909 262.1882 078.1080 10.80326136689146
Source of the keplerian elements: AFSPC